Tracking 23764 objects as of 17-Oct-2021
HD Live streaming from Space Station
objects crossing your sky now

ATLAS CENTAUR R/B

Track ATLAS CENTAUR R/B now!


NORAD ID: 10976
Int'l Code: 1978-068B
Perigee: 639.2 km
Apogee: 36,215.0 km
Inclination: 22.0 °
Period: 647.7 minutes
Semi major axis: 24798 km
RCS: 16.8333 m2 (large)
Launch date: June 29, 1978
Source: United States (US)
Launch site: AIR FORCE EASTERN TEST RANGE (AFETR)

Note: This is a ROCKET BODY
aabbcc
Your satellite tracking list
Your tracking list is empty




NASA's NSSDC Master Catalog

Two Line Element Set (TLE):
1 10976U 78068B   21289.94228736 -.00000177  00000-0 -25876-3 0  9993
2 10976  21.9881  15.2418 7173103 150.9363   1.0581  2.22318487351465
Source of the keplerian elements: AFSPC